Regional Weather Roundup
Issued by NWS

Home | Current Version | Previous Version | Text Only | Print | Product List | Glossary On
Versions: 1 2 3 4 5 6 7 8 9 10 11 12 13 14 15 16 17 18 19 20 21 22 23 24 25 26 27 28 29 30 31 32 33 34 35 36 37 38 39 40 41 42 43 44 45 46 47 48 49 50
000
ASUS43 KLOT 161206
RWRIL

ILLINOIS REGIONAL WEATHER ROUNDUP
NATIONAL WEATHER SERVICE CHICAGO/ROMEOVILLE IL
700 AM CDT TUE SEP 16 2014

NOTE: "FAIR" INDICATES FEW OR NO CLOUDS BELOW 12,000 FEET WITH NO
SIGNIFICANT WEATHER AND/OR OBSTRUCTIONS TO VISIBILITY.

* THESE STATIONS ARE NOT UNDER NWS QUALITY CONTROL. THEY ALSO MAY NOT
  REPORT WEATHER SUCH AS PRECIPITATION OR FOG.

ILZ001-002-007-009-015-016-024-161300-
NORTHWEST ILLINOIS

CITY           SKY/WX    TMP DP  RH WIND       PRES   REMARKS
MOLINE         CLEAR     41  39  93 SW3       30.24R FOG
6HR MIN TEMP:  41; 6HR MAX TEMP:  47;

STERLING*      CLEAR     37  34  87 CALM      30.23S
SAVANNA*       FOG       39  38  96 CALM      30.24R VSB 1/2
$$

ILZ003-004-008-010-011-017-018-161300-
NORTH CENTRAL ILLINOIS

CITY           SKY/WX    TMP DP  RH WIND       PRES   REMARKS
ROCKFORD       CLEAR     39  37  92 S3        30.24R
6HR MIN TEMP:  39; 6HR MAX TEMP:  45;

FREEPORT*      CLEAR     37  36  95 CALM      30.25R FOG
ROCHELLE*      FOG       35  34  99 CALM      30.24R VSB<1/4
DE KALB*       CLEAR     40  39  96 NW3       30.22R
PERU*          FOG       41  40  98 CALM      30.24R VSB 1/4
$$

ILZ005-006-012>014-019>023-161300-
NORTHEAST ILLINOIS

CITY           SKY/WX    TMP DP  RH WIND       PRES   REMARKS
CHICAGO-OHARE  PTCLDY    45  42  89 NW6       30.20R
6HR MIN TEMP:  44; 6HR MAX TEMP:  51;

CHICAGO-MIDWAY PTCLDY    47  45  93 CALM      30.20R
6HR MIN TEMP:  47; 6HR MAX TEMP:  54;

AURORA         CLEAR     41  38  89 W6        30.22R
6HR MIN TEMP:  39; 6HR MAX TEMP:  45;

LANSING*       CLEAR     47  46  97 W3        30.20S
JOLIET*        CLEAR     43  42  96 CALM      30.22S FOG
WAUKEGAN       CLEAR     44  41  89 NW6       30.20R
6HR MIN TEMP:  44; 6HR MAX TEMP:  47;

DUPAGE AIRPORT CLEAR     42  40  92 CALM      30.21R
6HR MIN TEMP:  41; 6HR MAX TEMP:  47;

KANKAKEE*      CLEAR     45  45  99 W3        30.22R FOG
WHEELING       CLEAR     45  42  89 NW3       30.22R
6HR MIN TEMP:  43; 6HR MAX TEMP:  50;

MORRIS*          N/A     41  41 100 CALM      30.22R FOG
ROMEOVILLE*    CLEAR     42  42 100 W5        30.22R FOG
NORTHERLY ISL    N/A     51  46  83 W2          N/A
$$

LMZ740>746-161300-
SOUTHERN LAKE MICHIGAN

STATION/POSITION SKY/WX   TEMP    WIND        PRES    VSBY  WAVE
                          AIR SEA DIR/SP/G                  HT/PER
                          (F)     (DEG/KT/KT) (MB)    (MI)  (FT/S)
SOUTHERN BUOY              58 63  340/ 10/ 12 1022.2R
WAUKEGAN HARBOR            47     320/  7/ 10   N/A
HARRISON CRIB              51     310/  9/ 11   N/A
BURNHAM HARBOR             52     260/  2/  6   N/A
CALUMET HARBOR             48     280/  4/  5 1021.3R
MICHIGAN CITY              53     100/  4/  5   N/A
MICHIGAN CITY 6N           56 64  130/  6/ 10   N/A           2/ 4
ST. JOSEPH                 56 67  100/  6/  8   N/A           2/ 4
$$

ILZ025>027-034>036-040-047-049-050-058-095>099-161300-
WEST-CENTRAL ILLINOIS

CITY           SKY/WX    TMP DP  RH WIND       PRES   REMARKS
QUINCY         CLEAR     45  43  93 N6        30.24R FOG
GALESBURG*     FOG       39  39 100 CALM      30.24R VSB 1/4
MACOMB*        FOG       40  40 100 N5        30.26S VSB 3/4
JACKSONVILLE*  FOG       48  47  97 CALM      30.25R VSB 1/4
PITTSFIELD*    CLEAR     49  47  93 CALM      30.25S FOG
$$

ILZ028>032-037-038-041>044-048-051>054-059>061-161300-
CENTRAL ILLINOIS

CITY           SKY/WX    TMP DP  RH WIND       PRES   REMARKS
PONTIAC        FOG       45  45 100 CALM      30.23R VSB<1/4
DECATUR        CLOUDY    53  51  93 N6        30.23R
PEORIA         FOG       48  45  89 CALM      30.24R VSB 1/4
6HR MIN TEMP:  48; 6HR MAX TEMP:  55;

LACON*         FOG       42  41  97 CALM      30.23S VSB 1/4
LINCOLN*         N/A     48  47  96 CALM      30.22S FOG
SPRINGFIELD    CLEAR     50  48  93 N3        30.23R FOG
6HR MIN TEMP:  50; 6HR MAX TEMP:  57;

TAYLORVILLE    CLOUDY    50  50 100 NE6       30.23S FOG
$$

ILZ033-039-045-046-055>057-062-063-161300-
EAST-CENTRAL ILLINOIS

CITY           SKY/WX    TMP DP  RH WIND       PRES   REMARKS
CHAMPAIGN      CLEAR     50  49  96 N6        30.22R FOG
DANVILLE*      CLOUDY    49  48  97 CALM      30.19R FOG
RANTOUL*       MOCLDY    52  49  88 N7        30.22S
MATTOON        CLOUDY    55  53  93 NW5       30.21R FOG
PARIS*         CLOUDY    55  54  98 CALM      30.21R FOG
$$

ILZ079-100>102-161300-
SOUTHWEST ILLINOIS

CITY           SKY/WX    TMP DP  RH WIND       PRES   REMARKS
ALTON          CLOUDY    55  52  88 N5        30.22S
BELLEVILLE     CLEAR     54  53  99 W1        30.21R
CAHOKIA*       CLOUDY    57  53  86 N3        30.22S
SPARTA*        CLOUDY    55  53  92 N5        30.22S
$$

ILZ064>066-069>071-074>076-080>082-084>086-088>090-092>094-161300-
SOUTH-CENTRAL ILLINOIS

CITY           SKY/WX    TMP DP  RH WIND       PRES   REMARKS
CARBONDALE     CLOUDY    58  53  84 N8        30.20R
6HR MIN TEMP:  58; 6HR MAX TEMP:  63;

CAIRO*         CLOUDY    63  57  81 N9G16     30.17R
EFFINGHAM*     CLOUDY    56  51  85 CALM      30.21S HAZE
MARION         CLOUDY    59  55  88 N8        30.20R
MT. VERNON     CLOUDY    57  50  77 N8        30.21S
CENTRALIA*     CLOUDY    55  51  84 N8        30.21S
SALEM*         CLOUDY    57  55  92 N6        30.21S
METROPOLIS*    CLOUDY    60  56  87 N7        30.17R
$$

ILZ067-068-072-073-078-083-087-091-161300-
SOUTHEAST ILLINOIS

CITY           SKY/WX    TMP DP  RH WIND       PRES   REMARKS
LAWRENCEVILLE  CLOUDY    57  55  93 N6        30.19R
FLORA*         CLEAR     56  53  90 N5        30.21R
FAIRFIELD*     CLOUDY   N/A N/A N/A N7        30.20R
HARRISBURG*    CLOUDY    59  56  89 N6        30.20R
ROBINSON*      CLOUDY    58  56  94 N6        30.21R
CARMI*         CLOUDY    60  58  94 N6        30.19R
$$

ABBREVIATIONS USED IN REMARKS
   TC - TEMPERATURE IN CELSIUS
  WCI - WIND CHILL INDEX
   HX - HEAT INDEX
  VSB - VISIBILITY
$$




USA.gov is the U.S. government's official web portal to all federal, state and local government web resources and services.